Flag for USA

Past Weather in Talladega, Alabama, USA — Yesterday and Last 2 Weeks

Now
72 °F

Low clouds.


Feels Like: 66 °F
Forecast: 88 / 71 °F
Wind: No wind

Location: Talladega Municipal Airport

Current Time: Jul 9, 2020 at 2:00:50 am

Latest Report: Jul 9, 2020 at 1:35 am


Visibility: 10 mi

Pressure: 29.94 "Hg

Humidity: 100%

Dew Point: 72 °F

Location of TalladegaLocation

Past Weather in Talladega — Graph

°F

Talladega Temperature Yesterday

Maximum temperature yesterday: 88 °F (at 5:15 pm)
Minimum temperature yesterday: 72 °F (at 10:35 pm)
Average temperature yesterday: 78 °F

High & Low Weather Summary for the Past Weeks

 TemperatureHumidityPressure
High92 °F (Jun 29, 2:15 pm)100% (Jun 24, 3:15 am)30.26 "Hg (Jun 24, 3:15 am)
Low66 °F (Jun 26, 5:35 am)51% (Jun 29, 2:35 pm)29.87 "Hg (Jul 4, 4:55 pm)
Average77 °F86%30.01 "Hg
* Reported Jun 24 12:15 am — Jul 9 12:55 am, Talladega. Weather by CustomWeather, © 2020

Note: Actual official high and low records may vary slightly from our data, if they occured in-between our weather recording intervals... More about our weather records

Talladega Weather History for the Previous 24 Hours

Scroll right to see more
 ConditionsComfort  
Time TempWeatherWind HumidityBarometerVisibility
12:55 am
Thu, Jul 9
72 °FPartly cloudy.No wind100%29.95 "Hg10 mi
12:35 am72 °FClear.No wind100%29.95 "Hg10 mi
12:15 am72 °FClear.No wind100%29.95 "Hg10 mi
11:55 pm
Wed, Jul 8
72 °FClear.No wind100%29.95 "Hg10 mi
11:35 pm72 °FClear.No wind100%29.95 "Hg10 mi
11:15 pm72 °FClear.No wind100%29.96 "Hg10 mi
10:55 pm72 °FClear.No wind100%29.95 "Hg10 mi
10:35 pm72 °FClear.No wind100%29.96 "Hg10 mi
10:15 pm72 °FClear.No wind100%29.96 "Hg10 mi
9:55 pm72 °FClear.No wind100%29.96 "Hg10 mi
9:35 pm72 °FClear.No wind100%29.96 "Hg10 mi
8:55 pm73 °FRain. Overcast.No wind99%29.95 "Hg7 mi
8:15 pm73 °FRain. Mostly cloudy.5 mph99%29.96 "Hg10 mi
7:55 pm73 °FRain. Cloudy.6 mph100%29.96 "Hg7 mi
7:35 pm74 °FHeavy rain. Cloudy.6 mph97%29.95 "Hg3 mi
7:15 pm77 °FDrizzle. Cloudy.No wind85%29.93 "Hg10 mi
6:55 pm79 °FThunderstorms. Broken clouds.6 mph78%29.93 "Hg10 mi
6:35 pm86 °FScattered clouds.6 mph65%29.92 "Hg10 mi
6:15 pm87 °FThundershowers. Sunny.5 mph62%29.92 "Hg10 mi
5:55 pm87 °FSunny.8 mph68%29.91 "Hg10 mi
5:35 pm86 °FSunny.9 mph68%29.92 "Hg10 mi
5:15 pm88 °FSunny.7 mph63%29.93 "Hg10 mi
4:55 pm87 °FThundershowers. Sunny.5 mph65%29.93 "Hg10 mi
4:35 pm88 °FSunny.7 mph64%29.92 "Hg10 mi
4:15 pm87 °FSunny.3 mph66%29.92 "Hg10 mi
3:55 pm87 °FScattered clouds.7 mph68%29.92 "Hg10 mi
3:35 pm87 °FScattered clouds.5 mph67%29.93 "Hg10 mi
3:15 pm86 °FScattered clouds.9 mph69%29.93 "Hg10 mi
2:55 pm86 °FScattered clouds.5 mph69%29.94 "Hg10 mi
2:35 pm85 °FScattered clouds.5 mph70%29.95 "Hg10 mi
2:15 pm85 °FSunny.No wind72%29.95 "Hg10 mi
1:55 pm85 °FSunny.7 mph73%29.96 "Hg10 mi
1:35 pm84 °FScattered clouds.5 mph76%29.97 "Hg10 mi
1:15 pm83 °FBroken clouds.5 mph79%29.99 "Hg10 mi
12:55 pm82 °FBroken clouds.5 mph81%30.00 "Hg10 mi
12:35 pm81 °FMostly cloudy.3 mph86%30.01 "Hg10 mi
12:15 pm80 °FMore clouds than sun.No wind84%30.02 "Hg10 mi
11:55 am79 °FMostly cloudy.No wind89%30.02 "Hg10 mi
11:35 am79 °FMostly cloudy.3 mph88%30.02 "Hg10 mi
11:15 am79 °FMore clouds than sun.No wind91%30.02 "Hg10 mi
10:55 am77 °FMore clouds than sun.No wind95%30.02 "Hg10 mi
10:35 am76 °FMore clouds than sun.No wind98%30.03 "Hg10 mi
10:15 am76 °FFog.No wind98%30.03 "Hg4 mi
9:55 am76 °FFog.No wind99%30.02 "Hg3 mi
9:35 am76 °FLow clouds.No wind98%30.02 "Hg7 mi
9:15 am76 °FLow clouds.No wind97%30.02 "Hg10 mi
8:35 am76 °FLight rain. Mostly cloudy.No wind97%30.01 "Hg10 mi
8:15 am75 °FRain. Mostly cloudy.No wind98%30.01 "Hg7 mi
7:55 am76 °FLow clouds.3 mph97%30.01 "Hg10 mi
7:35 am75 °FLow clouds.5 mph97%30.01 "Hg10 mi
7:15 am75 °FLow clouds.No wind99%30.00 "Hg10 mi
6:55 am74 °FLow clouds.No wind100%30.00 "Hg10 mi
6:35 am74 °FLow clouds.No wind100%30.00 "Hg7 mi
6:15 am74 °FMostly cloudy.No wind100%29.99 "Hg10 mi
5:55 am74 °FCloudy.No wind100%29.99 "Hg10 mi
5:35 am74 °FPartly cloudy.No wind100%29.99 "Hg10 mi
5:15 am73 °FPassing clouds.No wind100%29.99 "Hg10 mi
4:55 am73 °FPartly cloudy.3 mph100%29.98 "Hg10 mi
4:35 am74 °FPartly cloudy.No wind100%29.98 "Hg10 mi
4:15 am73 °FOvercast.No wind100%29.97 "Hg10 mi
3:55 am73 °FPassing clouds.3 mph100%29.97 "Hg10 mi
3:35 am73 °FPassing clouds.3 mph99%29.96 "Hg10 mi
3:15 am74 °FClear.No wind99%29.96 "Hg10 mi
2:55 am74 °FClear.No wind100%29.96 "Hg10 mi
2:35 am73 °FClear.No wind100%29.96 "Hg10 mi
2:15 am74 °FPassing clouds.No wind99%29.96 "Hg10 mi
Weather by CustomWeather, © 2020

See weather overview